Year,Month,Day,Hour,Minute,Value (Times are PST for insolation in W/m^2)
2016,07,13,07,36,149.00
2016,07,13,07,37,152.00
2016,07,13,07,38,159.00
2016,07,13,07,39,179.90
2016,07,13,07,40,168.20
2016,07,13,07,41,164.40
2016,07,13,07,42,166.40
2016,07,13,07,43,198.00
2016,07,13,07,44,207.90
2016,07,13,07,45,235.70
2016,07,13,07,46,241.40
2016,07,13,07,47,184.10
2016,07,13,07,48,177.00
2016,07,13,07,49,202.00
2016,07,13,07,50,215.80
2016,07,13,07,51,194.60
2016,07,13,07,52,181.90
2016,07,13,07,53,182.30
2016,07,13,07,54,186.80
2016,07,13,07,55,189.80
2016,07,13,07,56,190.10
2016,07,13,07,57,192.20
2016,07,13,07,58,193.00
2016,07,13,07,59,193.00
2016,07,13,08,00,194.00
2016,07,13,08,01,197.40
2016,07,13,08,02,201.00
2016,07,13,08,03,206.00
2016,07,13,08,04,206.00
2016,07,13,08,05,206.10
2016,07,13,08,06,206.40
2016,07,13,08,07,204.70
2016,07,13,08,08,206.40
2016,07,13,08,09,208.00
2016,07,13,08,10,207.80
2016,07,13,08,11,204.90
2016,07,13,08,12,202.40
2016,07,13,08,13,202.00
2016,07,13,08,14,202.30
2016,07,13,08,15,206.10
2016,07,13,08,16,213.00
2016,07,13,08,17,211.10
2016,07,13,08,18,211.30
2016,07,13,08,19,215.00
2016,07,13,08,20,217.50
2016,07,13,08,21,219.70
2016,07,13,08,22,223.20
2016,07,13,08,23,225.80
2016,07,13,08,24,231.00
2016,07,13,08,25,238.00
2016,07,13,08,26,243.40
2016,07,13,08,27,244.80
2016,07,13,08,28,245.50
2016,07,13,08,29,247.60
2016,07,13,08,30,250.60
2016,07,13,08,31,245.70
2016,07,13,08,32,244.00
2016,07,13,08,33,244.70
2016,07,13,08,34,247.80
2016,07,13,08,35,251.70
2016,07,13,08,36,254.30
2016,07,13,08,37,257.20
2016,07,13,08,38,258.00
2016,07,13,08,39,257.00
2016,07,13,08,40,257.00
2016,07,13,08,41,256.50
2016,07,13,08,42,253.40
2016,07,13,08,43,249.60
2016,07,13,08,44,245.60
2016,07,13,08,45,242.00
2016,07,13,08,46,239.40
2016,07,13,08,47,239.00
2016,07,13,08,48,241.20
2016,07,13,08,49,243.20
2016,07,13,08,50,244.70
2016,07,13,08,51,247.80
2016,07,13,08,52,251.60
2016,07,13,08,53,254.30
2016,07,13,08,54,255.00
2016,07,13,08,55,253.30
2016,07,13,08,56,250.90
2016,07,13,08,57,245.60
2016,07,13,08,58,242.50
2016,07,13,08,59,240.30
2016,07,13,09,00,240.00
2016,07,13,09,01,241.00
2016,07,13,09,02,239.70
2016,07,13,09,03,236.70
2016,07,13,09,04,234.30
2016,07,13,09,05,236.00
2016,07,13,09,06,237.40
2016,07,13,09,07,240.10
2016,07,13,09,08,243.40
2016,07,13,09,09,245.00
2016,07,13,09,10,246.00
2016,07,13,09,11,248.90
2016,07,13,09,12,250.90
2016,07,13,09,13,253.00
2016,07,13,09,14,255.00
2016,07,13,09,15,255.50
2016,07,13,09,16,257.00
2016,07,13,09,17,257.50
2016,07,13,09,18,260.30
2016,07,13,09,19,263.30
2016,07,13,09,20,268.00
2016,07,13,09,21,271.70
2016,07,13,09,22,273.90
2016,07,13,09,23,271.80
2016,07,13,09,24,269.80
2016,07,13,09,25,266.20
2016,07,13,09,26,265.00
2016,07,13,09,27,265.00
2016,07,13,09,28,267.90
2016,07,13,09,29,271.40
2016,07,13,09,30,277.40
2016,07,13,09,31,285.30
2016,07,13,09,32,287.80
2016,07,13,09,33,286.30
2016,07,13,09,34,284.20
2016,07,13,09,35,285.20
2016,07,13,09,36,290.20
2016,07,13,09,37,295.50
2016,07,13,09,38,301.00
2016,07,13,09,39,304.00
2016,07,13,09,40,303.70
2016,07,13,09,41,302.50
2016,07,13,09,42,305.70
2016,07,13,09,43,314.00
2016,07,13,09,44,327.60
2016,07,13,09,45,330.70
2016,07,13,09,46,329.80
2016,07,13,09,47,331.80
2016,07,13,09,48,338.60
2016,07,13,09,49,331.60
2016,07,13,09,50,331.30
2016,07,13,09,51,336.10
2016,07,13,09,52,344.00
2016,07,13,09,53,351.00
2016,07,13,09,54,357.20
2016,07,13,09,55,364.70
2016,07,13,09,56,375.00
2016,07,13,09,57,380.90
2016,07,13,09,58,379.60
2016,07,13,09,59,380.20
2016,07,13,10,00,394.50
2016,07,13,10,01,396.00
2016,07,13,10,02,390.20
2016,07,13,10,03,395.80
2016,07,13,10,04,402.10
2016,07,13,10,05,425.40
2016,07,13,10,06,410.00
2016,07,13,10,07,407.10
2016,07,13,10,08,410.40
2016,07,13,10,09,419.00
2016,07,13,10,10,445.60
2016,07,13,10,11,464.90
2016,07,13,10,12,466.40
2016,07,13,10,13,476.90
2016,07,13,10,14,443.90
2016,07,13,10,15,432.00
2016,07,13,10,16,436.00
2016,07,13,10,17,446.40
2016,07,13,10,18,475.20
2016,07,13,10,19,475.60
2016,07,13,10,20,476.00
2016,07,13,10,21,478.30
2016,07,13,10,22,494.40
2016,07,13,10,23,480.70
2016,07,13,10,24,468.60
2016,07,13,10,25,449.80
2016,07,13,10,26,435.70
2016,07,13,10,27,444.40
2016,07,13,10,28,459.80
2016,07,13,10,29,488.80
2016,07,13,10,30,551.90
2016,07,13,10,31,601.00
2016,07,13,10,32,619.10
2016,07,13,10,33,696.00
2016,07,13,10,34,627.40
2016,07,13,10,35,536.00
2016,07,13,10,36,597.50
2016,07,13,10,37,574.50
2016,07,13,10,38,525.70
2016,07,13,10,39,492.90
2016,07,13,10,40,526.40
2016,07,13,10,41,489.80
2016,07,13,10,42,548.00
2016,07,13,10,43,533.30
2016,07,13,10,44,542.30
2016,07,13,10,45,581.00
2016,07,13,10,46,580.80
2016,07,13,10,47,587.80
2016,07,13,10,48,508.20
2016,07,13,10,49,504.00
2016,07,13,10,50,515.50
2016,07,13,10,51,560.70
2016,07,13,10,52,578.00
2016,07,13,10,53,578.00
2016,07,13,10,54,578.00
2016,07,13,10,55,606.30
2016,07,13,10,56,634.80
2016,07,13,10,57,627.30
2016,07,13,10,58,684.00
2016,07,13,10,59,697.40
2016,07,13,11,00,696.30
2016,07,13,11,01,650.00
2016,07,13,11,02,650.00
2016,07,13,11,03,650.00
2016,07,13,11,04,529.30
2016,07,13,11,05,502.30
2016,07,13,11,06,522.30
2016,07,13,11,07,535.10
2016,07,13,11,08,533.00
2016,07,13,11,09,632.00
2016,07,13,11,10,708.10
2016,07,13,11,11,713.00
2016,07,13,11,12,724.00
2016,07,13,11,13,800.00
2016,07,13,11,14,818.00
2016,07,13,11,15,930.10
2016,07,13,11,16,912.70
2016,07,13,11,17,902.00
2016,07,13,11,18,902.00
2016,07,13,11,19,902.00
2016,07,13,11,20,644.10
2016,07,13,11,21,617.10
2016,07,13,11,22,635.00
2016,07,13,11,23,635.00
2016,07,13,11,24,679.80
2016,07,13,11,25,806.00
2016,07,13,11,26,784.10
2016,07,13,11,27,809.40
2016,07,13,11,28,834.80
2016,07,13,11,29,834.50
2016,07,13,11,30,833.20
2016,07,13,11,31,830.10
2016,07,13,11,32,831.00
2016,07,13,11,33,832.10
2016,07,13,11,34,834.20
2016,07,13,11,35,834.00
2016,07,13,11,36,836.20
2016,07,13,11,37,839.10
2016,07,13,11,38,840.00
2016,07,13,11,39,840.00
2016,07,13,11,40,841.00
2016,07,13,11,41,821.10
2016,07,13,11,42,845.80
2016,07,13,11,43,849.00
2016,07,13,11,44,851.60
2016,07,13,11,45,855.20
2016,07,13,11,46,856.00
2016,07,13,11,47,856.00
2016,07,13,11,48,866.70
2016,07,13,11,49,871.70
2016,07,13,11,50,871.90
2016,07,13,11,51,878.60
2016,07,13,11,52,883.20
2016,07,13,11,53,889.00
2016,07,13,11,54,893.80
2016,07,13,11,55,900.40
2016,07,13,11,56,889.30
2016,07,13,11,57,907.70
2016,07,13,11,58,914.40
2016,07,13,11,59,916.60
2016,07,13,12,00,919.20
2016,07,13,12,01,923.00
2016,07,13,12,02,931.20
2016,07,13,12,03,941.30
2016,07,13,12,04,945.60
2016,07,13,12,05,940.30
2016,07,13,12,06,940.00
2016,07,13,12,07,963.10
2016,07,13,12,08,1037.00
2016,07,13,12,09,1012.70
2016,07,13,12,10,983.00
2016,07,13,12,11,940.40
2016,07,13,12,12,916.00
2016,07,13,12,13,916.00
2016,07,13,12,14,878.90
2016,07,13,12,15,877.00
2016,07,13,12,16,877.00
2016,07,13,12,17,877.00
2016,07,13,12,18,845.50
2016,07,13,12,19,816.90
2016,07,13,12,20,857.50
2016,07,13,12,21,874.00
2016,07,13,12,22,729.20
2016,07,13,12,23,705.30
2016,07,13,12,24,642.00
2016,07,13,12,25,642.00
2016,07,13,12,26,642.00
2016,07,13,12,27,631.00
2016,07,13,12,28,621.00
2016,07,13,12,29,621.00
2016,07,13,12,30,756.00
2016,07,13,12,31,786.00
2016,07,13,12,32,786.00
2016,07,13,12,33,786.00
2016,07,13,12,34,791.30
2016,07,13,12,35,794.50
2016,07,13,12,36,845.10
2016,07,13,12,37,888.00
2016,07,13,12,38,768.00
2016,07,13,12,39,711.70
2016,07,13,12,40,611.70
2016,07,13,12,41,542.30
2016,07,13,12,42,577.80
2016,07,13,12,43,570.00
2016,07,13,12,44,570.00
2016,07,13,12,45,570.00
2016,07,13,12,46,737.90
2016,07,13,12,47,816.20
2016,07,13,12,48,819.00
2016,07,13,12,49,826.30
2016,07,13,12,50,868.00
2016,07,13,12,51,746.10
2016,07,13,12,52,530.50
2016,07,13,12,53,553.70
2016,07,13,12,54,587.00
2016,07,13,12,55,923.00
2016,07,13,12,56,989.20
2016,07,13,12,57,973.70
2016,07,13,12,58,963.90
2016,07,13,12,59,956.80
2016,07,13,13,00,951.00
2016,07,13,13,01,947.00
2016,07,13,13,02,948.10
2016,07,13,13,03,945.60
2016,07,13,13,04,944.00
2016,07,13,13,05,932.60
2016,07,13,13,06,920.70
2016,07,13,13,07,917.20
2016,07,13,13,08,913.30
2016,07,13,13,09,912.90
2016,07,13,13,10,912.90
2016,07,13,13,11,914.40
2016,07,13,13,12,916.00
2016,07,13,13,13,912.60
2016,07,13,13,14,912.00
2016,07,13,13,15,912.00
2016,07,13,13,16,911.70
2016,07,13,13,17,912.10
2016,07,13,13,18,915.90
2016,07,13,13,19,919.80
2016,07,13,13,20,922.30
2016,07,13,13,21,921.50
2016,07,13,13,22,921.00
2016,07,13,13,23,919.20
2016,07,13,13,24,922.00
2016,07,13,13,25,926.00
2016,07,13,13,26,926.00
2016,07,13,13,27,926.00
2016,07,13,13,28,926.00
2016,07,13,13,29,957.40
2016,07,13,13,30,926.30
2016,07,13,13,31,924.10
2016,07,13,13,32,927.20
2016,07,13,13,33,935.50
2016,07,13,13,34,935.40
2016,07,13,13,35,928.00
2016,07,13,13,36,923.00
2016,07,13,13,37,919.50
2016,07,13,13,38,918.00
2016,07,13,13,39,918.00
2016,07,13,13,40,911.60
2016,07,13,13,41,916.80
2016,07,13,13,42,922.40
2016,07,13,13,43,926.80
2016,07,13,13,44,929.00
2016,07,13,13,45,883.80
2016,07,13,13,46,853.00
2016,07,13,13,47,853.00
2016,07,13,13,48,863.80
2016,07,13,13,49,923.80
2016,07,13,13,50,911.80
2016,07,13,13,51,911.30
2016,07,13,13,52,914.40
2016,07,13,13,53,918.50
2016,07,13,13,54,920.20
2016,07,13,13,55,922.50
2016,07,13,13,56,925.60
2016,07,13,13,57,928.10
2016,07,13,13,58,932.00
2016,07,13,13,59,928.30
2016,07,13,14,00,926.00
2016,07,13,14,01,922.30
2016,07,13,14,02,914.50
2016,07,13,14,03,923.00
2016,07,13,14,04,923.00
2016,07,13,14,05,869.90
2016,07,13,14,06,917.10
2016,07,13,14,07,841.60
2016,07,13,14,08,840.00
2016,07,13,14,09,840.00
2016,07,13,14,10,840.00
2016,07,13,14,11,791.20
2016,07,13,14,12,765.00
2016,07,13,14,13,765.00
2016,07,13,14,14,750.50
2016,07,13,14,15,779.90
2016,07,13,14,16,965.00
2016,07,13,14,17,956.10
2016,07,13,14,18,944.70
2016,07,13,14,19,950.20
2016,07,13,14,20,960.30
2016,07,13,14,21,969.40
2016,07,13,14,22,929.30
2016,07,13,14,23,912.60
2016,07,13,14,24,795.00
2016,07,13,14,25,861.90
2016,07,13,14,26,987.10
2016,07,13,14,27,897.90
2016,07,13,14,28,909.60
2016,07,13,14,29,998.60
2016,07,13,14,30,1030.60
2016,07,13,14,31,1014.90
2016,07,13,14,32,1027.30
2016,07,13,14,33,981.00
2016,07,13,14,34,981.00
2016,07,13,14,35,981.00
2016,07,13,14,36,966.80
2016,07,13,14,37,954.00
2016,07,13,14,38,956.80
2016,07,13,14,39,876.20
2016,07,13,14,40,814.00
2016,07,13,14,41,724.00
2016,07,13,14,42,694.00
2016,07,13,14,43,688.40
2016,07,13,14,44,680.00
2016,07,13,14,45,663.10
2016,07,13,14,46,649.00
2016,07,13,14,47,757.00
2016,07,13,14,48,852.90
2016,07,13,14,49,857.90
2016,07,13,14,50,893.80
2016,07,13,14,51,887.30
2016,07,13,14,52,882.00
2016,07,13,14,53,862.20
2016,07,13,14,54,847.00
2016,07,13,14,55,847.00
2016,07,13,14,56,857.90
2016,07,13,14,57,839.30
2016,07,13,14,58,824.50
2016,07,13,14,59,858.00
2016,07,13,15,00,858.00
2016,07,13,15,01,705.90
2016,07,13,15,02,503.00
2016,07,13,15,03,729.00
2016,07,13,15,04,865.70
2016,07,13,15,05,854.70
2016,07,13,15,06,841.50
2016,07,13,15,07,835.70
2016,07,13,15,08,829.50
2016,07,13,15,09,826.10
2016,07,13,15,10,821.90
2016,07,13,15,11,819.80
2016,07,13,15,12,817.60
2016,07,13,15,13,816.20
2016,07,13,15,14,816.00
2016,07,13,15,15,813.80
2016,07,13,15,16,811.60
2016,07,13,15,17,810.00
2016,07,13,15,18,809.60
2016,07,13,15,19,808.00
2016,07,13,15,20,809.00
2016,07,13,15,21,809.20
2016,07,13,15,22,805.40
2016,07,13,15,23,804.90
2016,07,13,15,24,802.80
2016,07,13,15,25,801.00
2016,07,13,15,26,798.70
2016,07,13,15,27,800.00
2016,07,13,15,28,798.80
2016,07,13,15,29,798.00
2016,07,13,15,30,795.60
2016,07,13,15,31,795.90
2016,07,13,15,32,792.80
2016,07,13,15,33,790.60
2016,07,13,15,34,788.10
2016,07,13,15,35,786.00
2016,07,13,15,36,784.10
2016,07,13,15,37,782.00
2016,07,13,15,38,780.60
2016,07,13,15,39,777.60
2016,07,13,15,40,775.20
2016,07,13,15,41,774.80
2016,07,13,15,42,773.00
2016,07,13,15,43,773.00
2016,07,13,15,44,772.50
2016,07,13,15,45,772.00
2016,07,13,15,46,769.50
2016,07,13,15,47,765.60
2016,07,13,15,48,763.30
2016,07,13,15,49,762.80
2016,07,13,15,50,760.40
2016,07,13,15,51,758.00
2016,07,13,15,52,757.20
2016,07,13,15,53,756.00
2016,07,13,15,54,753.00
2016,07,13,15,55,751.00
2016,07,13,15,56,749.40
2016,07,13,15,57,747.10
2016,07,13,15,58,745.00
2016,07,13,15,59,744.30
2016,07,13,16,00,742.00
2016,07,13,16,01,741.10
2016,07,13,16,02,738.40
2016,07,13,16,03,737.00
2016,07,13,16,04,735.50
2016,07,13,16,05,733.30
2016,07,13,16,06,729.20
2016,07,13,16,07,728.90
2016,07,13,16,08,726.90
2016,07,13,16,09,724.00
2016,07,13,16,10,724.00
2016,07,13,16,11,722.90
2016,07,13,16,12,720.00
2016,07,13,16,13,717.50
2016,07,13,16,14,712.50
2016,07,13,16,15,711.60
2016,07,13,16,16,707.80
2016,07,13,16,17,706.40
2016,07,13,16,18,705.00
2016,07,13,16,19,703.00
2016,07,13,16,20,700.40
2016,07,13,16,21,697.10
2016,07,13,16,22,694.30
2016,07,13,16,23,693.90
2016,07,13,16,24,691.00
2016,07,13,16,25,690.50
2016,07,13,16,26,688.30
2016,07,13,16,27,685.60
2016,07,13,16,28,682.90
2016,07,13,16,29,680.70
2016,07,13,16,30,680.00
2016,07,13,16,31,677.40
2016,07,13,16,32,675.00
2016,07,13,16,33,672.60
2016,07,13,16,34,670.10
2016,07,13,16,35,668.00
2016,07,13,16,36,667.00
2016,07,13,16,37,664.20
2016,07,13,16,38,663.00
2016,07,13,16,39,659.80
2016,07,13,16,40,657.20
2016,07,13,16,41,658.30
2016,07,13,16,42,653.60
2016,07,13,16,43,651.00
2016,07,13,16,44,648.20
2016,07,13,16,45,646.00
2016,07,13,16,46,643.70
2016,07,13,16,47,642.20
2016,07,13,16,48,638.60
2016,07,13,16,49,636.00
2016,07,13,16,50,634.70
2016,07,13,16,51,632.40
2016,07,13,16,52,630.20
2016,07,13,16,53,627.60
2016,07,13,16,54,624.90
2016,07,13,16,55,621.90
2016,07,13,16,56,621.00
2016,07,13,16,57,619.30
2016,07,13,16,58,615.00
2016,07,13,16,59,614.60
2016,07,13,17,00,611.50
2016,07,13,17,01,608.00
2016,07,13,17,02,606.60
2016,07,13,17,03,603.80
2016,07,13,17,04,601.60
2016,07,13,17,05,597.00
2016,07,13,17,06,596.00
2016,07,13,17,07,593.70
2016,07,13,17,08,591.30
2016,07,13,17,09,588.30
2016,07,13,17,10,586.10
2016,07,13,17,11,584.40
2016,07,13,17,12,584.70
2016,07,13,17,13,579.80
2016,07,13,17,14,575.40
2016,07,13,17,15,574.60
2016,07,13,17,16,570.80
2016,07,13,17,17,569.50
2016,07,13,17,18,566.60
2016,07,13,17,19,563.50
2016,07,13,17,20,561.90
2016,07,13,17,21,559.50
2016,07,13,17,22,555.80
2016,07,13,17,23,554.00
2016,07,13,17,24,550.00
2016,07,13,17,25,549.30
2016,07,13,17,26,546.30
2016,07,13,17,27,543.40
2016,07,13,17,28,540.50
2016,07,13,17,29,538.80
2016,07,13,17,30,535.10
2016,07,13,17,31,533.10
2016,07,13,17,32,529.20
2016,07,13,17,33,528.40
2016,07,13,17,34,524.90
2016,07,13,17,35,522.00
2016,07,13,17,36,520.70
2016,07,13,17,37,518.00
2016,07,13,17,38,518.30
2016,07,13,17,39,514.40
2016,07,13,17,40,514.70
2016,07,13,17,41,507.80
2016,07,13,17,42,505.40
2016,07,13,17,43,502.40
2016,07,13,17,44,499.50
2016,07,13,17,45,496.50
2016,07,13,17,46,493.70
2016,07,13,17,47,489.90
2016,07,13,17,48,489.00
2016,07,13,17,49,485.30
2016,07,13,17,50,482.90
2016,07,13,17,51,481.60
2016,07,13,17,52,479.30
2016,07,13,17,53,477.00
2016,07,13,17,54,474.40
2016,07,13,17,55,471.80
2016,07,13,17,56,468.70
2016,07,13,17,57,468.00
2016,07,13,17,58,462.20
2016,07,13,17,59,460.60
2016,07,13,18,00,457.80
2016,07,13,18,01,454.60
2016,07,13,18,02,452.00
2016,07,13,18,03,450.00
2016,07,13,18,04,447.20
2016,07,13,18,05,446.00
2016,07,13,18,06,439.70
2016,07,13,18,07,437.70
2016,07,13,18,08,435.50
2016,07,13,18,09,434.00
2016,07,13,18,10,434.00
2016,07,13,18,11,430.50
2016,07,13,18,12,425.10
2016,07,13,18,13,422.50
2016,07,13,18,14,420.30
2016,07,13,18,15,417.00
2016,07,13,18,16,414.40
2016,07,13,18,17,410.80
2016,07,13,18,18,408.50
2016,07,13,18,19,405.00
2016,07,13,18,20,403.40
2016,07,13,18,21,401.70
2016,07,13,18,22,398.00
2016,07,13,18,23,396.10
2016,07,13,18,24,391.80
2016,07,13,18,25,389.60
2016,07,13,18,26,387.00
2016,07,13,18,27,384.10
2016,07,13,18,28,381.50
2016,07,13,18,29,378.80
2016,07,13,18,30,375.10
2016,07,13,18,31,373.10
2016,07,13,18,32,371.00
2016,07,13,18,33,366.90
2016,07,13,18,34,365.20
2016,07,13,18,35,361.00
2016,07,13,18,36,358.10
2016,07,13,18,37,354.90
2016,07,13,18,38,352.40
2016,07,13,18,39,350.50
2016,07,13,18,40,348.30
2016,07,13,18,41,345.00
2016,07,13,18,42,342.20
2016,07,13,18,43,338.70
2016,07,13,18,44,337.20
2016,07,13,18,45,334.10
2016,07,13,18,46,330.20
2016,07,13,18,47,327.60
2016,07,13,18,48,323.70
2016,07,13,18,49,322.00
2016,07,13,18,50,319.40
2016,07,13,18,51,315.80
2016,07,13,18,52,313.80
2016,07,13,18,53,310.10
2016,07,13,18,54,308.50
2016,07,13,18,55,305.60
2016,07,13,18,56,302.50
2016,07,13,18,57,299.50
2016,07,13,18,58,295.10
2016,07,13,18,59,293.70
2016,07,13,19,00,290.90
2016,07,13,19,01,287.60
2016,07,13,19,02,285.20
2016,07,13,19,03,282.00
2016,07,13,19,04,279.70
2016,07,13,19,05,278.20
2016,07,13,19,06,274.60
2016,07,13,19,07,271.70
2016,07,13,19,08,268.60
2016,07,13,19,09,266.10
2016,07,13,19,10,263.20
2016,07,13,19,11,260.00
2016,07,13,19,12,257.40
2016,07,13,19,13,255.60
2016,07,13,19,14,251.60
2016,07,13,19,15,250.00
2016,07,13,19,16,247.40
2016,07,13,19,17,243.80
2016,07,13,19,18,241.50
2016,07,13,19,19,238.10
2016,07,13,19,20,235.50
2016,07,13,19,21,232.70
2016,07,13,19,22,229.60
2016,07,13,19,23,225.40
2016,07,13,19,24,220.90
2016,07,13,19,25,219.20
2016,07,13,19,26,215.10
2016,07,13,19,27,212.20
2016,07,13,19,28,209.00
2016,07,13,19,29,205.20
2016,07,13,19,30,201.30
2016,07,13,19,31,199.20
2016,07,13,19,32,195.40
2016,07,13,19,33,191.60
2016,07,13,19,34,187.50
2016,07,13,19,35,186.00
2016,07,13,19,36,186.00
2016,07,13,19,37,186.00
2016,07,13,19,38,186.00
2016,07,13,19,39,186.00
2016,07,13,19,40,186.00
2016,07,13,19,41,186.00
2016,07,13,19,42,186.00
2016,07,13,19,43,186.00
2016,07,13,19,44,186.00
